{"data":{"norad_id":87878,"epoch":"2026-09-13T04:29:08.508192Z","epoch_age_seconds":646366,"freshness":"AGED","line1":"1 87878U          26256.18690403  .00001866  00000+0  57533-3 0  9996","line2":"2 87878  99.1854  40.7117 0035084 177.6684 182.4673 14.42371202650845","mean_motion":14.42371202,"eccentricity":0.0035084,"inclination_deg":99.1854,"raan_deg":40.7117,"arg_perigee_deg":177.6684,"mean_anomaly_deg":182.4673,"bstar":0.00057533,"rev_number":65084,"period_min":99.83560390025,"perigee_km":725.66402105522,"apogee_km":775.68546730177,"semimajor_km":7128.8117441785,"source":"CELESTRAK","updated_at":"2026-09-20T09:00:32.480445Z"}}